DELTA 1 DEB, 7035

Orbit data source: Space-Track

DELTA 1 DEB, 7035 is space debris in LEO originally from a launch on Tue, 06 Nov 1973 UTC launched from the Air Force Western Test Range (AFWTR). Debris objects in space refer to the collection of defunct objects orbiting the Earth. Examples of debris include non-operational satellites, rocket bodies, and fragments generated from explosions, collisions, or faulty payload assembly.

Loading next visibility...
Identifier
7035, 1973-086AB
Orbit
LEO
Country
Flag of USUS
Related business
Manufacturer
Unknown
Mission
Spacecraft
Bus & Motor
Unknown
Mass
Unknown
Launch date (UTC)
1973-11-06 (52 years ago)
Launch vehicle
Unknown
Launch site
Air Force Western Test Range (AFWTR)
Object type
Payload
Rocket body
Debris
Shape & HBR
Unknown
Radar Cross Section
Medium (>0.1 m² and <1 m²)

Expand to show TLE details & history
Last TLE update: 19 hours ago

TLE from 19 hours ago
0 DELTA 1 DEB
1 07035U 73086AB  25259.11332247  .00000045  00000-0  10822-2 0  9999
2 07035 101.7728 205.1144 0314218 207.4553 174.4175 11.83494066237929
Epoch: 2025-09-16T02:43Z
TLE epoch observation values (Epoch: 2025-09-16T02:43:11.061Z)
Latitude
21.73009°
Longitude
164.26717°
Altitude
2,012.362 km
Speed
6.787 km/s
True Right ascension
13h 21m 29s
True Declination
21° 37' 47"
Sunlit
Object was in daylight at epoch
Visualization orbit readout
Latitude
Unknown
Longitude
Unknown
Altitude
Unknown
Speed
Unknown
Apparent Right ascension
Unknown
Apparent Declination
Unknown
Sunlit
N/A
Visualization observer readout
Local Sidereal Time
14:31:54
Azimuth
Unknown
Elevation
Unknown
Doppler factor
Unknown
Orbital elements
Apogee altitude
2,008.754 km
Perigee altitude
1,497.749 km
Semi-major axis
8,131.388 km
Eccentricity
0.03142
Inclination
101.7728°
RAAN
205.1144°
Arg. of periapsis
207.4553°
True anomaly
174.75457°
Mean anomaly
174.4175°
Eccentric anomaly
174.58732°
Mean motion
2.96003 °/min
Orbital period
121.62 mins
BSTAR
0.0010822
Loading maneuver chart data...
Computing Atmospheric mass density...
Loading historical data...
Loading historical data...
Loading historical data...
Loading historical data...
Loading historical data...
Loading historical data...
Loading historical data...

Documentation

Showing up to 5 results
|